Orbital Elements at Epoch 2459000.5 (2020-May-31.0) TDB
Reference: JPL 29 (heliocentric ecliptic J2000)
Element | Value | Uncertainty (1-sigma) | Units |
e | .2831900789000925 | 3.8935e-08 | |
a | 2.981383836443979 | 1.4685e-08 | au |
q | 2.137085512569948 | 1.1595e-07 | au |
i | 9.708125313787592 | 4.3167e-06 | deg |
node | 305.1519947075043 | 2.5961e-05 | deg |
peri | 9.225767158927308 | 2.7314e-05 | deg |
M | 226.0395542818519 | 1.1584e-05 | deg |
tp | 2459700.179820991081 (2022-Apr-30.67982099) | 6.3537e-05 | TDB |
period | 1880.291859335502 5.15 | 1.3892e-05 3.803e-08 | d yr |
n | .1914596386792977 | 1.4145e-09 | deg/d |
Q | 3.82568216031801 | 1.8843e-08 | au |
|
| | Orbit Determination Parameters
Additional Information
|